GW1757 Weather Reports


time (UTC)temp
F
wind
direction
speed
knots
gust
knots
rain 1hr
in
rain 24hr
in
rain mn
in
humidity
%
barometer
mb
20260509101906 82 359 2.6 3.5 0.00 0.67 0.67 87 1006.9
20260509101359 82 354 2.6 3.5 0.00 0.67 0.67 87 1007.0
20260509100853 82 354 2.6 3.5 0.00 0.67 0.67 87 1006.9
20260509100347 82 354 2.6 3.5 0.00 0.67 0.67 87 1006.9
20260509100104 82 354 1.7 3.5 0.00 0.67 0.67 86 1007.0
20260509095334 83 14 1.7 4.3 0.00 0.67 0.67 86 1006.9
20260509094828 83 49 1.7 4.3 0.00 0.67 0.67 86 1006.8
20260509094322 83 15 1.7 4.3 0.00 0.67 0.67 87 1006.8
20260509093816 83 17 1.7 4.3 0.00 0.67 0.67 86 1006.9
20260509093311 83 359 1.7 5.2 0.00 0.67 0.67 86 1007.0
20260509092804 83 359 2.6 5.2 0.00 0.67 0.67 86 1006.9
20260509092258 83 22 1.7 4.3 0.00 0.67 0.67 86 1006.8
20260509091752 83 71 2.6 6.1 0.00 0.67 0.67 87 1006.7
20260509091246 83 17 3.5 7.0 0.00 0.67 0.67 87 1006.7
20260509091008 83 12 4.3 7.8 0.00 0.67 0.67 86 1006.6
20260509090233 83 359 4.3 7.8 0.00 0.67 0.67 86 1006.5
20260509085955 84 359 3.5 7.8 0.00 0.67 0.67 86 1006.5
20260509085223 84 343 2.6 7.8 0.00 0.67 0.67 85 1006.6
20260509084716 84 359 2.6 7.8 0.00 0.67 0.67 86 1006.5
20260509084212 84 21 3.5 7.8 0.00 0.67 0.67 85 1006.5
20260509083705 84 64 3.5 8.7 0.00 0.67 0.67 85 1006.4
20260509083159 84 50 3.5 8.7 0.00 0.67 0.67 84 1006.3
20260509082919 85 52 3.5 7.8 0.00 0.67 0.67 85 1006.3
20260509082146 85 51 3.5 7.8 0.00 0.67 0.67 85 1006.2
20260509081640 85 345 2.6 7.8 0.00 0.67 0.67 84 1006.2
20260509081135 84 359 3.5 7.8 0.00 0.67 0.67 85 1006.1
20260509080628 84 43 5.2 8.7 0.00 0.67 0.67 84 1006.1
20260509080340 84 34 5.2 8.7 0.00 0.67 0.67 84 1006.1
20260509075617 85 43 5.2 9.6 0.00 0.67 0.67 83 1006.1
20260509075329 85 20 4.3 9.6 0.00 0.67 0.67 83 1006.1
20260509074822 85 59 4.3 8.7 0.00 0.67 0.67 83 1006.1
20260509074059 85 23 5.2 9.6 0.00 0.67 0.67 82 1006.2
20260509073552 85 16 3.5 9.6 0.00 0.67 0.67 83 1006.3
20260509073046 85 84 2.6 7.8 0.00 0.67 0.67 83 1006.3
20260509072541 85 359 3.5 7.8 0.00 0.67 0.67 83 1006.3
20260509072034 85 4 4.3 9.6 0.00 0.67 0.67 83 1006.4
20260509071528 85 48 4.3 11.3 0.00 0.67 0.67 83 1006.3
20260509071252 85 359 3.5 11.3 0.00 0.67 0.67 82 1006.4
20260509070516 85 37 3.5 7.8 0.00 0.67 0.67 82 1006.5
20260509070010 85 55 3.5 7.8 0.00 0.67 0.67 83 1006.5
20260509065504 85 359 3.5 7.8 0.00 0.67 0.67 82 1006.5
20260509064959 85 8 3.5 7.8 0.00 0.67 0.67 82 1006.5
20260509064452 85 16 3.5 7.8 0.00 0.67 0.67 83 1006.6
20260509063946 85 25 4.3 8.7 0.00 0.67 0.67 83 1006.5
20260509063441 84 40 5.2 8.7 0.00 0.67 0.67 82 1006.6
20260509062934 85 66 4.3 8.7 0.00 0.67 0.67 82 1006.6
20260509062428 85 31 4.3 9.6 0.00 0.67 0.67 81 1006.6
20260509061922 85 8 4.3 9.6 0.00 0.67 0.67 82 1006.7
20260509061417 85 4 4.3 9.6 0.00 0.67 0.67 83 1006.7
20260509060911 85 23 4.3 11.3 0.00 0.67 0.67 83 1006.7
20260509060405 85 338 5.2 11.3 0.00 0.67 0.67 82 1006.8
20260509055859 85 21 6.1 10.4 0.00 0.67 0.67 82 1006.8
20260509055352 85 13 6.1 10.4 0.00 0.67 0.67 82 1006.8
20260509054847 84 341 5.2 10.4 0.00 0.67 0.67 84 1006.8
20260509054343 84 359 5.2 10.4 0.00 0.67 0.67 82 1006.9
20260509053839 84 349 4.3 10.4 0.00 0.67 0.67 82 1006.9
20260509053338 84 16 4.3 10.4 0.00 0.67 0.67 83 1007.0
20260509052838 84 67 5.2 10.4 0.00 0.67 0.67 81 1007.1
20260509052823 85 17 5.2 10.4 0.00 0.67 0.67 82 1007.1
20260509051839 85 25 6.1 10.4 0.00 0.67 0.67 82 1007.3
20260509051339 85 14 6.1 14.8 0.00 0.67 0.67 82 1007.4
20260509050839 84 337 6.1 14.8 0.00 0.67 0.67 83 1007.4
20260509050338 85 359 5.2 11.3 0.00 0.67 0.67 84 1007.5
20260509045838 84 343 6.1 11.3 0.00 0.67 0.67 84 1007.6
20260509045338 84 8 7.0 11.3 0.00 0.67 0.67 84 1007.7
20260509044838 85 337 6.1 11.3 0.00 0.67 0.67 85 1007.6
20260509044338 85 35 6.1 10.4 0.00 0.67 0.67 84 1007.7
20260509044108 85 70 7.0 13.0 0.00 0.67 0.67 85 1007.8
20260509043338 84 345 7.0 13.0 0.00 0.67 0.67 85 1007.9
20260509042838 85 25 6.1 11.3 0.00 0.67 0.67 84 1007.9
20260509042559 85 48 5.2 11.3 0.00 0.67 0.67 85 1008.1
20260509041834 84 33 7.0 12.2 0.00 0.67 0.67 86 1008.2
20260509041335 84 15 7.0 13.0 0.00 0.67 0.67 85 1008.3
20260509040835 84 22 6.1 13.0 0.00 0.67 0.67 83 1008.2
20260509040334 85 4 7.0 12.2 0.00 0.67 0.67 85 1008.3
20260509040057 85 25 7.0 12.2 0.00 0.67 0.67 84 1008.3
20260509035336 84 38 7.0 13.9 0.00 0.67 0.67 84 1008.4
20260509034834 84 53 7.8 13.9 0.00 0.67 0.67 85 1008.5
20260509034334 84 25 7.8 13.0 0.00 0.67 0.67 86 1008.5
20260509033831 84 33 7.8 13.0 0.00 0.67 0.67 86 1008.7
20260509033330 84 10 7.0 12.2 0.00 0.67 0.67 87 1008.8
20260509032830 84 32 7.0 14.8 0.00 0.67 0.67 88 1008.8
20260509032551 84 93 7.8 14.8 0.00 0.67 0.67 87 1008.9
20260509031831 84 37 7.8 14.8 0.00 0.67 0.67 88 1008.9
20260509031330 84 71 8.7 14.8 0.00 0.67 0.67 88 1008.9
20260509030831 84 9 7.0 13.0 0.00 0.67 0.67 87 1008.9
20260509030330 84 359 7.0 13.9 0.00 0.67 0.67 87 1008.8
20260509025836 84 344 7.8 13.9 0.00 0.67 0.67 88 1009.0
20260509025328 84 18 6.1 13.0 0.00 0.67 0.67 87 1009.1
20260509024823 84 354 7.0 13.0 0.00 0.67 0.67 87 1009.2
20260509024316 84 359 7.0 13.0 0.00 0.67 0.67 86 1009.2
20260509023814 85 43 7.0 12.2 0.00 0.67 0.67 87 1009.2
20260509023305 85 37 6.1 13.0 0.00 0.67 0.67 86 1009.2
20260509022758 85 31 5.2 13.0 0.00 0.67 0.67 86 1009.1
20260509022252 85 94 6.1 11.3 0.00 0.67 0.67 86 1009.2
20260509021749 84 27 5.2 11.3 0.00 0.67 0.67 86 1009.4
20260509021240 84 4 6.1 13.9 0.00 0.67 0.67 86 1009.5
20260509020734 84 34 6.1 13.9 0.00 0.67 0.67 86 1009.5
20260509020229 84 359 4.3 11.3 0.00 0.67 0.67 85 1009.5
20260509015216 84 348 5.2 11.3 0.00 0.67 0.67 86 1009.4
20260509014711 84 41 5.2 9.6 0.00 0.67 0.67 87 1009.5
20260509014426 84 359 5.2 10.4 0.00 0.67 0.67 87 1009.4
20260509013658 84 37 6.1 13.0 0.00 0.67 0.67 87 1009.4
20260509013154 83 52 6.1 13.0 0.00 0.67 0.67 87 1009.4
20260509012647 83 68 6.1 12.2 0.00 0.67 0.67 88 1009.4
20260509012141 83 8 6.1 12.2 0.00 0.67 0.67 88 1009.4
20260509011635 83 27 5.2 11.3 0.00 0.67 0.67 89 1009.3
20260509011129 83 359 4.3 10.4 0.00 0.67 0.67 89 1009.5
20260509010622 83 359 4.3 10.4 0.00 0.67 0.67 89 1009.5
20260509010119 83 4 3.5 10.4 0.00 0.67 0.67 89 1009.5
20260509005611 83 66 1.7 7.8 0.00 0.67 0.67 90 1009.6
20260509005105 83 359 0.0 6.1 0.00 0.67 0.67 90 1009.6
20260509004558 82 31 0.0 0.0 0.00 0.67 0.67 90 1009.5
20260509004059 82 36 0.0 0.0 0.00 0.67 0.67 91 1009.5
20260509003547 82 348 0.0 0.0 0.00 0.67 0.67 90 1009.4
20260509003041 82 348 0.0 0.0 0.00 0.67 0.67 90 1009.5
20260509002536 83 359 0.0 0.9 0.00 0.67 0.67 91 1009.5
20260509002259 83 233 0.0 0.0 0.00 0.67 0.67 92 1009.4
20260509001523 82 231 0.0 0.0 0.00 0.67 0.67 92 1009.4
20260509001512 82 232 0.0 0.0 0.00 0.67 0.67 92 1009.5
20260509000510 81 136 0.0 0.0 0.00 0.67 0.67 92 1009.5
20260509000450 81 134 0.0 0.9 0.00 0.67 0.67 92 1009.3
20260508235500 81 147 0.0 0.9 0.00 0.67 0.67 92 1009.3
20260508234953 81 162 0.0 0.9 0.00 0.67 0.67 93 1009.3
20260508234448 81 162 0.0 0.9 0.00 0.67 0.67 93 1009.3
20260508233941 80 165 0.0 0.0 0.00 0.67 0.67 93 1009.2
20260508233652 80 201 0.0 0.0 0.00 0.67 0.67 93 1009.0
20260508232928 80 162 0.0 0.0 0.00 0.67 0.67 93 1009.1
20260508232423 80 150 0.0 0.0 0.00 0.67 0.67 93 1009.1
20260508231916 80 151 0.0 0.0 0.00 0.67 0.67 93 1009.0
20260508231410 80 149 0.0 0.0 0.00 0.67 0.67 93 1009.0
20260508230906 80 147 0.0 0.0 0.00 0.67 0.67 93 1008.8
20260508230359 79 147 0.0 0.0 0.00 0.67 0.67 93 1008.8
20260508225853 79 147 0.0 0.0 0.00 0.67 0.67 93 1008.6
20260508225352 79 149 0.0 0.0 0.00 0.67 0.67 93 1008.6
20260508224849 79 148 0.0 1.7 0.01 0.67 0.67 93 1008.7
20260508224350 79 137 0.0 1.7 0.01 0.67 0.67 93 1008.6
20260508223849 79 150 0.0 0.0 0.01 0.67 0.67 93 1008.5
20260508223606 79 149 0.0 0.0 0.05 0.67 0.67 93 1008.5
20260508223118 78 130 0.0 0.0 0.05 0.67 0.67 94 1008.4
20260508222347 78 133 0.0 0.0 0.05 0.67 0.67 94 1008.2
20260508221845 78 200 0.0 0.0 0.05 0.67 0.67 94 1008.2
20260508221346 77 210 0.0 0.0 0.05 0.67 0.67 94 1008.2
20260508220845 78 201 0.0 2.6 0.05 0.67 0.67 93 1008.2
20260508220613 78 226 0.0 2.6 0.05 0.67 0.67 94 1008.2
20260508215845 78 201 0.0 2.6 0.05 0.67 0.67 94 1008.0
20260508215347 78 359 0.0 0.0 0.05 0.67 0.67 94 1007.9
20260508214845 78 195 0.0 0.0 0.04 0.66 0.66 94 1007.9
20260508214346 78 359 0.0 4.3 0.04 0.66 0.66 94 1008.0
20260508213845 77 121 0.0 4.3 0.04 0.66 0.66 94 1007.9
20260508213345 77 225 0.0 0.0 0.00 0.62 0.62 94 1008.1
20260508213105 77 359 0.0 0.0 0.00 0.62 0.62 94 1008.0
20260508212334 78 359 0.0 0.0 0.00 0.62 0.62 94 1007.9
20260508211827 78 359 0.0 0.0 0.00 0.62 0.62 94 1007.7
20260508211330 77 213 0.0 1.7 0.00 0.62 0.62 94 1007.7
20260508211049 77 212 0.0 1.7 0.00 0.62 0.62 94 1007.7
20260508210325 77 220 0.0 1.7 0.00 0.62 0.62 94 1007.6
20260508205825 77 220 0.0 0.0 0.00 0.62 0.62 94 1007.6
20260508205325 77 223 0.0 0.0 0.00 0.62 0.62 94 1007.5
20260508204825 77 224 0.0 0.0 0.00 0.62 0.62 94 1007.4
20260508204327 77 359 0.0 0.0 0.00 0.62 0.62 94 1007.4
20260508203827 77 195 0.0 0.0 0.00 0.62 0.62 94 1007.3
20260508203325 76 199 0.0 0.0 0.00 0.62 0.62 94 1007.3
20260508202825 77 243 0.0 0.0 0.00 0.62 0.62 94 1007.3
20260508202325 77 246 0.0 0.0 0.00 0.62 0.62 94 1007.3
20260508201825 76 231 0.0 0.9 0.00 0.62 0.62 94 1007.2
20260508201325 77 198 0.0 2.6 0.00 0.62 0.62 95 1007.3
20260508200825 76 212 0.9 4.3 0.00 0.62 0.62 95 1007.2
20260508200324 76 359 0.9 4.3 0.00 0.62 0.62 94 1007.2
20260508195821 76 359 0.9 4.3 0.00 0.62 0.62 94 1007.2
20260508195321 76 222 0.9 4.3 0.00 0.62 0.62 94 1007.2
20260508194821 76 226 0.9 6.1 0.01 0.62 0.62 94 1007.2
20260508194320 76 193 0.9 6.1 0.01 0.62 0.62 94 1007.2
20260508194048 76 359 0.9 5.2 0.02 0.62 0.62 94 1007.1
20260508193321 76 215 1.7 6.1 0.04 0.62 0.62 94 1007.1
20260508193305 76 201 1.7 6.1 0.05 0.62 0.62 94 1007.1
20260508192321 76 255 2.6 6.1 0.08 0.62 0.62 94 1007.1
20260508191819 76 213 1.7 6.1 0.14 0.62 0.62 94 1007.0
20260508191539 76 359 0.9 6.1 0.14 0.62 0.62 94 1007.1
20260508191300 76 227 0.9 5.2 0.15 0.62 0.62 94 1007.0
20260508190319 76 224 0.0 3.5 0.22 0.62 0.62 94 1007.2
20260508185819 76 233 0.9 3.5 0.23 0.62 0.62 94 1007.1
20260508185319 76 210 0.0 3.5 0.23 0.62 0.62 94 1007.1
20260508184819 76 227 0.0 2.6 0.22 0.61 0.61 94 1007.1
20260508184319 76 197 0.9 3.5 0.24 0.61 0.61 94 1007.1
20260508183818 76 246 1.7 7.0 0.23 0.61 0.61 94 1007.1
20260508183312 76 221 1.7 7.8 0.21 0.58 0.59 94 1007.2
20260508182806 76 243 0.9 7.8 0.24 0.57 0.57 94 1007.2
20260508182300 77 218 0.0 3.5 0.23 0.54 0.54 94 1007.2
20260508181754 77 244 0.0 1.7 0.17 0.48 0.48 94 1007.4
20260508181249 77 359 0.9 5.2 0.17 0.48 0.48 94 1007.4
20260508181011 77 227 0.9 5.2 0.15 0.46 0.47 93 1007.5
20260508180236 78 179 0.0 0.0 0.09 0.39 0.39 93 1007.7
20260508180042 78 177 0.0 0.0 0.10 0.39 0.39 94 1007.6
20260508174942 78 162 0.0 1.7 0.20 0.46 0.39 93 1007.8
20260508174212 78 359 0.9 3.5 0.24 0.53 0.38 93 1007.8
20260508174156 78 152 0.9 3.5 0.24 0.76 0.38 94 1007.9
20260508173200 77 139 0.9 4.3 0.25 0.96 0.37 93 1007.9
20260508172654 77 177 0.9 4.3 0.32 1.06 0.33 93 1007.9
20260508172147 77 63 0.9 4.3 0.31 1.24 0.31 93 1008.0
20260508171642 77 47 0.9 5.2 0.31 1.24 0.31 93 1007.9
20260508171136 77 212 2.6 9.6 0.31 1.26 0.31 92 1007.8
20260508170630 78 105 3.5 9.6 0.31 1.36 0.31 93 1007.9
20260508170124 77 51 3.5 9.6 0.31 1.58 0.31 94 1007.9
20260508165618 76 346 2.6 10.4 0.28 1.65 0.29 93 1007.7
20260508165330 76 169 5.2 12.2 0.20 1.57 0.20 93 1008.1
20260508164606 78 133 4.3 12.2 0.17 1.54 0.17 92 1008.0
20260508164101 77 45 3.5 10.4 0.14 1.56 0.14 92 1007.9
20260508163555 78 129 7.0 13.0 0.13 1.65 0.13 92 1007.9
20260508163312 78 120 6.1 13.0 0.09 1.65 0.09 91 1008.1
20260508162542 80 103 2.6 11.3 0.00 1.57 0.00 91 1008.2
20260508162306 80 124 1.7 4.3 0.00 1.57 0.00 91 1008.1
20260508161748 80 151 0.9 3.5 0.00 1.57 0.00 91 1008.1
20260508161027 80 122 1.7 7.0 0.00 1.57 0.00 91 1008.3
20260508160519 80 177 2.6 7.0 0.00 1.57 0.00 90 1008.3
20260508160240 81 162 1.7 6.1 0.00 1.57 0.00 90 1008.4
20260508155507 81 154 0.0 2.6 0.00 1.57 1.57 89 1008.5
20260508155002 82 65 0.0 1.7 0.00 1.57 1.57 89 1008.5
20260508154456 82 66 0.9 2.6 0.00 1.57 1.57 89 1008.5
20260508153949 82 66 1.7 6.1 0.00 1.57 1.57 89 1008.6
20260508153443 82 45 2.6 6.1 0.00 1.57 1.57 89 1008.7
20260508152937 82 110 1.7 3.5 0.00 1.57 1.57 89 1008.8
20260508152433 82 90 2.6 7.0 0.00 1.57 1.57 89 1008.8
20260508151926 82 117 3.5 7.0 0.00 1.57 1.57 89 1008.9
20260508151419 81 107 2.6 6.1 0.00 1.57 1.57 89 1009.0
20260508150913 81 110 1.7 6.1 0.00 1.57 1.57 89 1009.0
20260508150407 81 133 2.6 6.1 0.00 1.57 1.57 89 1009.1
20260508150131 81 129 1.7 5.2 0.00 1.57 1.57 89 1009.2
20260508145355 81 103 1.7 2.6 0.00 1.57 1.57 89 1009.1
20260508144849 81 102 1.7 3.5 0.00 1.57 1.57 89 1009.2
20260508144839 82 106 1.7 3.5 0.00 1.57 1.57 89 1009.1
20260508143837 82 102 2.6 5.2 0.00 1.57 1.57 88 1009.1
20260508143335 82 89 2.6 5.2 0.00 1.57 1.57 88 1009.2
20260508143049 82 66 2.6 5.2 0.00 1.57 1.57 88 1009.2
20260508142321 82 69 2.6 6.1 0.00 1.57 1.57 88 1009.2
20260508141822 82 117 2.6 6.1 0.00 1.57 1.57 88 1009.2
20260508141321 82 89 1.7 5.2 0.00 1.57 1.57 88 1009.1
20260508140825 82 77 0.9 4.3 0.00 1.57 1.57 88 1009.1
20260508140549 81 88 0.9 2.6 0.00 1.57 1.57 89 1009.1
20260508135823 81 256 0.9 2.6 0.00 1.57 1.57 89 1009.0
20260508135321 81 259 0.9 2.6 0.00 1.57 1.57 89 1009.0
20260508134822 81 258 0.9 3.5 0.00 1.57 1.57 89 1008.9
20260508134322 81 259 0.9 3.5 0.00 1.57 1.57 89 1009.0
20260508133819 81 258 0.0 1.7 0.00 1.57 1.57 89 1008.9
20260508133540 81 257 0.0 2.6 0.00 1.57 1.57 89 1008.9
20260508132819 81 359 0.9 2.6 0.00 1.57 1.57 89 1008.9
20260508132317 81 195 0.9 3.5 0.00 1.57 1.57 89 1008.9
20260508131818 81 204 1.7 3.5 0.00 1.57 1.57 89 1008.9
20260508131317 81 201 0.9 4.3 0.00 1.57 1.57 90 1008.9
20260508130818 81 206 0.9 4.3 0.00 1.57 1.57 90 1008.7
20260508130322 80 199 0.9 3.5 0.00 1.57 1.57 90 1008.7
20260508125824 80 217 0.9 2.6 0.00 1.57 1.57 90 1008.6
20260508125316 80 224 0.9 3.5 0.00 1.57 1.57 90 1008.6
20260508124806 81 224 0.9 3.5 0.00 1.57 1.57 90 1008.6
20260508124259 81 201 0.9 2.6 0.00 1.57 1.57 90 1008.5
20260508123759 81 213 0.9 2.6 0.00 1.57 1.57 90 1008.5
20260508123257 81 217 0.9 2.6 0.00 1.57 1.57 90 1008.5
20260508122802 81 230 0.9 2.6 0.00 1.57 1.57 90 1008.6
20260508122519 81 231 0.9 2.6 0.00 1.57 1.57 90 1008.5
20260508121756 81 185 0.9 2.6 0.00 1.57 1.57 90 1008.4
20260508121257 81 240 0.9 2.6 0.00 1.57 1.57 90 1008.4
20260508120757 81 224 0.9 3.5 0.00 1.57 1.57 89 1008.4
20260508120301 82 359 0.9 3.5 0.00 1.57 1.57 89 1008.4
20260508115755 82 223 0.9 2.6 0.00 1.57 1.57 89 1008.4
20260508115520 82 212 0.9 2.6 0.00 1.57 1.57 88 1008.3
20260508114753 83 214 0.9 2.6 0.00 1.57 1.57 88 1008.2
20260508114253 83 218 0.9 2.6 0.00 1.57 1.57 88 1008.1
20260508113751 83 99 1.7 3.5 0.00 1.57 1.57 87 1008.1
20260508113250 83 98 2.6 3.5 0.00 1.57 1.57 87 1008.0
20260508112752 83 81 1.7 3.5 0.00 1.57 1.57 87 1008.1
20260508112254 83 64 2.6 4.3 0.00 1.57 1.57 87 1007.9
20260508111750 83 79 2.6 4.3 0.00 1.57 1.57 87 1007.7
20260508111251 83 67 2.6 4.3 0.00 1.57 1.57 87 1007.7
20260508110751 82 53 2.6 3.5 0.00 1.57 1.57 88 1007.7
20260508110248 82 77 1.7 3.5 0.00 1.57 1.57 89 1007.6
20260508105749 82 37 1.7 3.5 0.00 1.57 1.57 89 1007.6
20260508105249 82 8 1.7 3.5 0.00 1.57 1.57 89 1007.6
20260508104750 82 354 1.7 3.5 0.00 1.57 1.57 89 1007.5
20260508104249 82 52 2.6 4.3 0.00 1.57 1.57 89 1007.4
20260508103749 82 354 1.7 4.3 0.00 1.57 1.57 89 1007.3
20260508103249 82 359 1.7 3.5 0.00 1.57 1.57 89 1007.2
20260508102749 82 359 1.7 3.5 0.00 1.57 1.57 89 1007.2